TimeEDT,TemperatureF,Dew PointF,Humidity,Sea Level PressureIn,VisibilityMPH,Wind Direction,Wind SpeedMPH,Gust SpeedMPH,PrecipitationIn,Events,Conditions,WindDirDegrees,DateUTC
12:15 AM,39.2,35.6,87,30.38,10.0,Calm,Calm,-,N/A,,Clear,0,2013-10-09 04:15:00
12:35 AM,39.2,35.6,87,30.39,10.0,Calm,Calm,-,N/A,,Clear,0,2013-10-09 04:35:00
12:55 AM,37.4,33.8,87,30.39,10.0,Calm,Calm,-,N/A,,Clear,0,2013-10-09 04:55:00
1:15 AM,37.4,33.8,87,30.38,10.0,Calm,Calm,-,N/A,,Clear,0,2013-10-09 05:15:00
1:35 AM,37.4,33.8,87,30.39,10.0,Calm,Calm,-,N/A,,Clear,0,2013-10-09 05:35:00
1:55 AM,37.4,33.8,87,30.40,10.0,Calm,Calm,-,N/A,,Clear,0,2013-10-09 05:55:00
2:15 AM,37.4,33.8,87,30.39,10.0,Calm,Calm,-,N/A,,Clear,0,2013-10-09 06:15:00
2:35 AM,37.4,33.8,87,30.39,10.0,Calm,Calm,-,N/A,,Clear,0,2013-10-09 06:35:00
2:55 AM,35.6,32.0,87,30.39,10.0,Calm,Calm,-,N/A,,Clear,0,2013-10-09 06:55:00
3:15 AM,35.6,33.8,93,30.40,10.0,Calm,Calm,-,N/A,,Clear,0,2013-10-09 07:15:00
3:35 AM,35.6,33.8,93,30.40,4.0,Calm,Calm,-,N/A,,Clear,0,2013-10-09 07:35:00
3:55 AM,35.6,33.8,93,30.41,0.8,Calm,Calm,-,N/A,,Scattered Clouds,0,2013-10-09 07:55:00
4:15 AM,35.6,33.8,93,30.42,0.8,Calm,Calm,-,N/A,,Overcast,0,2013-10-09 08:15:00
4:35 AM,35.6,32.0,87,30.42,0.8,Calm,Calm,-,N/A,,Mostly Cloudy,0,2013-10-09 08:35:00
4:55 AM,35.6,33.8,93,30.43,0.2,Calm,Calm,-,N/A,,Overcast,0,2013-10-09 08:55:00
5:15 AM,35.6,33.8,93,30.44,0.2,Calm,Calm,-,N/A,,Overcast,0,2013-10-09 09:15:00
5:35 AM,35.6,32.0,87,30.43,0.8,Calm,Calm,-,N/A,,Overcast,0,2013-10-09 09:35:00
5:55 AM,35.6,33.8,93,30.44,0.2,Calm,Calm,-,N/A,,Overcast,0,2013-10-09 09:55:00
6:15 AM,35.6,32.0,87,30.45,0.2,Calm,Calm,-,N/A,,Overcast,0,2013-10-09 10:15:00
6:35 AM,33.8,30.2,87,30.45,0.5,Calm,Calm,-,N/A,,Overcast,0,2013-10-09 10:35:00
6:55 AM,35.6,32.0,87,30.45,0.2,Calm,Calm,-,N/A,,Overcast,0,2013-10-09 10:55:00
7:15 AM,35.6,33.8,93,30.46,0.2,Calm,Calm,-,N/A,,Overcast,0,2013-10-09 11:15:00
7:35 AM,37.4,33.8,87,30.47,0.2,Calm,Calm,-,N/A,,Overcast,0,2013-10-09 11:35:00
7:55 AM,37.4,35.6,93,30.47,0.2,Calm,Calm,-,N/A,,Overcast,0,2013-10-09 11:55:00
8:15 AM,39.2,37.4,93,30.48,0.2,Calm,Calm,-,N/A,,Overcast,0,2013-10-09 12:15:00
8:35 AM,42.8,39.2,87,30.48,5.0,Calm,Calm,-,N/A,,Mostly Cloudy,0,2013-10-09 12:35:00
8:55 AM,42.8,39.2,87,30.48,10.0,Calm,Calm,-,N/A,,Clear,0,2013-10-09 12:55:00
9:15 AM,46.4,39.2,76,30.48,10.0,Calm,Calm,-,N/A,,Clear,0,2013-10-09 13:15:00
9:35 AM,48.2,39.2,71,30.48,10.0,Calm,Calm,-,N/A,,Clear,0,2013-10-09 13:35:00
9:55 AM,48.2,41.0,76,30.48,10.0,Calm,Calm,-,N/A,,Clear,0,2013-10-09 13:55:00
10:35 AM,51.8,39.2,62,30.48,10.0,NE,4.6,-,N/A,,Clear,50,2013-10-09 14:35:00
10:55 AM,53.6,39.2,58,30.48,10.0,East,3.5,-,N/A,,Clear,80,2013-10-09 14:55:00
11:15 AM,55.4,39.2,54,30.48,10.0,NNE,5.8,-,N/A,,Clear,30,2013-10-09 15:15:00
11:35 AM,55.4,37.4,51,30.48,10.0,NNE,5.8,-,N/A,,Clear,30,2013-10-09 15:35:00
11:55 AM,55.4,39.2,54,30.47,10.0,NNE,6.9,-,N/A,,Clear,20,2013-10-09 15:55:00
12:15 PM,57.2,39.2,51,30.47,10.0,North,6.9,-,N/A,,Clear,10,2013-10-09 16:15:00
12:35 PM,57.2,39.2,51,30.45,10.0,North,5.8,-,N/A,,Clear,360,2013-10-09 16:35:00
12:55 PM,57.2,37.4,48,30.45,10.0,NE,6.9,-,N/A,,Clear,40,2013-10-09 16:55:00
1:15 PM,59.0,35.6,42,30.44,10.0,NNE,5.8,-,N/A,,Clear,20,2013-10-09 17:15:00
1:35 PM,57.2,33.8,41,30.43,10.0,NNE,5.8,-,N/A,,Clear,30,2013-10-09 17:35:00
1:55 PM,59.0,35.6,42,30.43,10.0,North,3.5,-,N/A,,Clear,360,2013-10-09 17:55:00
2:15 PM,57.2,33.8,41,30.42,10.0,ENE,4.6,-,N/A,,Clear,70,2013-10-09 18:15:00
2:35 PM,59.0,35.6,42,30.41,10.0,ENE,4.6,-,N/A,,Clear,60,2013-10-09 18:35:00
2:55 PM,60.8,35.6,39,30.40,10.0,NNE,4.6,-,N/A,,Clear,20,2013-10-09 18:55:00
3:15 PM,60.8,35.6,39,30.40,10.0,North,5.8,-,N/A,,Clear,360,2013-10-09 19:15:00
3:35 PM,62.6,37.4,39,30.39,10.0,Calm,Calm,-,N/A,,Clear,0,2013-10-09 19:35:00
3:55 PM,60.8,37.4,42,30.39,10.0,ENE,5.8,-,N/A,,Clear,60,2013-10-09 19:55:00
4:15 PM,60.8,37.4,42,30.38,10.0,NNE,4.6,-,N/A,,Clear,30,2013-10-09 20:15:00
4:35 PM,60.8,37.4,42,30.38,10.0,Calm,Calm,-,N/A,,Clear,0,2013-10-09 20:35:00
4:55 PM,59.0,37.4,45,30.38,10.0,NNE,3.5,-,N/A,,Clear,30,2013-10-09 20:55:00
5:15 PM,59.0,37.4,45,30.38,10.0,Calm,Calm,-,N/A,,Clear,0,2013-10-09 21:15:00
5:55 PM,55.4,42.8,63,30.37,10.0,Calm,Calm,-,N/A,,Clear,0,2013-10-09 21:55:00
6:15 PM,51.8,42.8,71,30.37,10.0,Calm,Calm,-,N/A,,Clear,0,2013-10-09 22:15:00
6:35 PM,51.8,42.8,71,30.38,10.0,Calm,Calm,-,N/A,,Clear,0,2013-10-09 22:35:00
6:55 PM,48.2,42.8,82,30.38,10.0,Calm,Calm,-,N/A,,Clear,0,2013-10-09 22:55:00
7:15 PM,48.2,42.8,82,30.37,10.0,Calm,Calm,-,N/A,,Clear,0,2013-10-09 23:15:00
7:35 PM,48.2,41.0,76,30.37,10.0,NW,3.5,-,N/A,,Clear,320,2013-10-09 23:35:00
7:55 PM,46.4,41.0,81,30.37,10.0,Calm,Calm,-,N/A,,Clear,0,2013-10-09 23:55:00
8:15 PM,46.4,41.0,81,30.37,10.0,Calm,Calm,-,N/A,,Clear,0,2013-10-10 00:15:00
8:35 PM,44.6,39.2,81,30.37,10.0,Calm,Calm,-,N/A,,Clear,0,2013-10-10 00:35:00
8:55 PM,44.6,39.2,81,30.37,10.0,Calm,Calm,-,N/A,,Clear,0,2013-10-10 00:55:00
9:15 PM,44.6,39.2,81,30.38,10.0,Calm,Calm,-,N/A,,Clear,0,2013-10-10 01:15:00
9:35 PM,44.6,39.2,81,30.38,10.0,Calm,Calm,-,N/A,,Clear,0,2013-10-10 01:35:00
9:55 PM,44.6,39.2,81,30.38,10.0,Calm,Calm,-,N/A,,Clear,0,2013-10-10 01:55:00
10:15 PM,44.6,39.2,81,30.37,10.0,Calm,Calm,-,N/A,,Clear,0,2013-10-10 02:15:00
10:35 PM,44.6,39.2,81,30.37,10.0,Calm,Calm,-,N/A,,Clear,0,2013-10-10 02:35:00
10:55 PM,42.8,39.2,87,30.37,10.0,Calm,Calm,-,N/A,,Clear,0,2013-10-10 02:55:00
11:15 PM,42.8,39.2,87,30.36,10.0,Calm,Calm,-,N/A,,Clear,0,2013-10-10 03:15:00
11:35 PM,44.6,39.2,81,30.36,10.0,Calm,Calm,-,N/A,,Clear,0,2013-10-10 03:35:00
11:55 PM,44.6,39.2,81,30.36,10.0,Calm,Calm,-,N/A,,Clear,0,2013-10-10 03:55:00